• Join FlightAware (Why Join?)
  • Login
  • US Flag 
11:51AM EDT


 

Airport Tracker/Info


-or-


 

Live Flight TrackerFlight Track Log ✈ DAL110 ✈ 21-May-2013 ✈ KATL - KLAX

Flight Track Log - Related Links

Times and Time Zones

All times are in EDT time to prevent confusion due to time zone crossing. See the DAL110 flight status page for this flight to view local times or setup timezone preferences in your user account.

Time Position Orientation Groundspeed Altitude Reporting Facility
EDT Latitude Longitude Course Direction KTS MPH feet Rate Location/Type
08:54AM 33.6475 -84.4731 252° West 489 563 2,600  Level Atlanta Center
08:55AM 33.6667 -84.5500 287° West 257 296 4,900 2,640 Climbing Atlanta TRACON
08:56AM 33.8001 -84.3699 270° West  Level FlightAware Approximate
08:56AM 33.6833 -84.6333 284° West 269 310 7,800  Level Atlanta TRACON
08:57AM 33.8001 -84.5096 270° West  Level FlightAware Approximate
08:57AM 33.7000 -84.7167 284° West 288 331 10,000  Level Atlanta TRACON
08:58AM 33.7915 -84.6477 252° West  Level FlightAware Approximate
08:59AM 33.7549 -84.7803 252° West  Level FlightAware Approximate
08:59AM 33.6758 -84.9825 264° West 380 437 14,100  Level Atlanta Center
09:00AM 33.6622 -85.1119 263° West 403 464 16,700 2,700 Climbing Atlanta Center
09:01AM 33.6297 -85.2514 254° West 420 483 19,500 2,760 Climbing Atlanta Center
09:02AM 33.5825 -85.3828 247° West 426 490 22,300 1,740 Climbing Atlanta Center
09:03AM 33.5372 -85.5092 247° West 437 503 23,000 900 Climbing Atlanta Center
09:04AM 33.4875 -85.6453 246° West 442 509 24,200 1,800 Climbing Atlanta Center
09:05AM 33.4583 -85.7942 257° West 453 521 26,700 2,220 Climbing Atlanta Center
09:06AM 33.4853 -85.9442 282° West 446 513 28,700 2,220 Climbing Atlanta Center
09:07AM 33.5161 -86.0994 283° West 468 539 31,200 2,580 Climbing Atlanta Center
09:08AM 33.5489 -86.2597 284° West 483 556 33,900 2,340 Climbing Atlanta Center
09:09AM 33.5750 -86.4175 281° West 493 567 35,900 1,020 Climbing Atlanta Center
09:10AM 33.6056 -86.5703 284° West 480 552 36,000  Climbing Atlanta Center
09:11AM 33.6356 -86.7261 283° West 480 552 36,000  Level Atlanta Center
09:12AM 33.6611 -86.8864 281° West 480 552 36,000  Level Atlanta Center
09:14AM 33.6342 -87.2136 264° West 497 572 36,000  Level Memphis Center
09:15AM 33.6133 -87.3914 262° West 503 579 36,000  Level Memphis Center
09:16AM 33.5964 -87.5567 263° West 503 579 36,000  Level Memphis Center
09:17AM 33.5750 -87.7219 261° West 503 579 36,000  Level Memphis Center
09:18AM 33.5572 -87.8819 262° West 503 579 36,000  Level Memphis Center
09:19AM 33.5397 -88.0444 263° West 498 573 36,000  Level Memphis Center
09:20AM 33.5194 -88.2069 262° West 498 573 36,000  Level Memphis Center
09:21AM 33.5056 -88.3692 264° West 503 579 36,000  Level Memphis Center
09:22AM 33.4872 -88.5289 262° West 503 579 36,000  Level Memphis Center
09:23AM 33.4853 -88.6908 269° West 503 579 36,000 720 Level Memphis Center
09:24AM 33.4853 -88.8528 270° West 498 573 37,500 960 Climbing Memphis Center
09:25AM 33.4828 -89.0072 269° West 483 556 38,000 240 Climbing Memphis Center
09:26AM 33.4822 -89.1617 270° West 472 543 38,000  Level Memphis Center
09:27AM 33.4794 -89.3111 269° West 462 532 38,000  Level Memphis Center
09:28AM 33.4786 -89.4481 270° West 457 526 38,000  Level Memphis Center
09:29AM 33.4775 -89.5953 270° West 457 526 38,000  Level Memphis Center
09:30AM 33.4742 -89.7469 269° West 457 526 38,000  Level Memphis Center
09:31AM 33.4728 -89.8989 269° West 457 526 38,000  Level Memphis Center
09:32AM 33.4689 -90.0533 268° West 457 526 38,000  Level Memphis Center
09:33AM 33.4672 -90.2053 269° West 457 526 38,000  Level Memphis Center
09:34AM 33.4672 -90.3597 270° West 457 526 38,000  Level Memphis Center
09:35AM 33.4672 -90.5117 270° West 457 526 38,000 -300 Level Memphis Center
09:36AM 33.4586 -90.6636 266° West 457 526 37,500 -900 Descending Memphis Center
09:37AM 33.4225 -90.8303 255° West 470 541 36,200 -780 Descending Memphis Center
09:38AM 33.3928 -90.9817 257° West 470 541 36,000 -120 Descending Memphis Center
09:39AM 33.3625 -91.1308 256° West 470 541 36,000  Level Memphis Center
09:40AM 33.3303 -91.2872 256° West 475 547 36,000  Level Memphis Center
09:41AM 33.2978 -91.4383 256° West 470 541 36,000  Level Memphis Center
09:43AM 33.2361 -91.7514 257° West 464 534 36,000  Level Fort Worth Center
09:44AM 33.2069 -91.8972 257° West 464 534 36,000  Level Fort Worth Center
09:45AM 33.1714 -92.0408 254° West 464 534 36,000  Level Fort Worth Center
09:46AM 33.1422 -92.1864 257° West 459 528 36,000  Level Fort Worth Center
09:47AM 33.1103 -92.3272 255° West 459 528 36,000  Level Fort Worth Center
09:48AM 33.0744 -92.4731 254° West 459 528 36,000  Level Fort Worth Center
09:49AM 33.0447 -92.6183 256° West 459 528 36,000  Level Fort Worth Center
09:50AM 33.0122 -92.7586 255° West 459 528 36,000  Level Fort Worth Center
09:51AM 32.9947 -92.9058 262° West 454 522 36,000  Level Fort Worth Center
09:52AM 32.9894 -93.0522 268° West 454 522 36,000  Level Fort Worth Center
09:53AM 32.9861 -93.1958 268° West 444 511 36,000  Level Fort Worth Center
09:54AM 32.9806 -93.3422 267° West 444 511 36,000  Level Fort Worth Center
09:55AM 32.9769 -93.4911 268° West 444 511 36,000  Level Fort Worth Center
09:56AM 32.9731 -93.6397 268° West 444 511 36,000  Level Fort Worth Center
09:57AM 32.9669 -93.7861 267° West 444 511 36,000  Level Fort Worth Center
09:58AM 32.9628 -93.9347 268° West 444 511 36,000  Level Fort Worth Center
09:59AM 32.9567 -94.0958 267° West 444 511 36,000  Level Fort Worth Center
10:00AM 32.9522 -94.2422 268° West 444 511 36,000  Level Fort Worth Center
10:01AM 32.9475 -94.3908 268° West 444 511 36,000  Level Fort Worth Center
10:02AM 32.9425 -94.5369 268° West 444 511 36,000  Level Fort Worth Center
10:03AM 32.9372 -94.6808 268° West 444 511 36,000  Level Fort Worth Center
10:04AM 32.9322 -94.8294 268° West 444 511 36,000  Level Fort Worth Center
10:05AM 32.9247 -94.9756 267° West 444 511 36,000  Level Fort Worth Center
10:06AM 32.9169 -95.1194 266° West 444 511 36,000  Level Fort Worth Center
10:07AM 32.9111 -95.2606 267° West 444 511 36,000  Level Fort Worth Center
10:08AM 32.9089 -95.3892 269° West 438 504 36,000  Level Fort Worth Center
10:09AM 32.9028 -95.5331 267° West 438 504 36,000  Level Fort Worth Center
10:10AM 32.8967 -95.6767 267° West 438 504 36,000  Level Fort Worth Center
10:11AM 32.8903 -95.8228 267° West 444 511 36,000  Level Fort Worth Center
10:12AM 32.8836 -95.9639 267° West 439 505 36,000  Level Fort Worth Center
10:13AM 32.8767 -96.1097 267° West 439 505 36,000  Level Fort Worth Center
10:14AM 32.8697 -96.2533 267° West 439 505 36,000 300 Level Fort Worth Center
10:15AM 32.8628 -96.3919 267° West 439 505 36,600 960 Climbing Fort Worth Center
10:16AM 32.8533 -96.5356 266° West 439 505 38,000 660 Climbing Fort Worth Center
10:17AM 32.8458 -96.6742 266° West 439 505 38,000  Level Fort Worth Center
10:18AM 32.8383 -96.8125 266° West 434 499 38,000  Level Fort Worth Center
10:19AM 32.8306 -96.9486 266° West 423 487 38,000  Level Fort Worth Center
10:20AM 32.8225 -97.1019 266° West 423 487 38,000  Level Fort Worth Center
10:21AM 32.8103 -97.2403 264° West 423 487 38,000  Level Fort Worth Center
10:22AM 32.8019 -97.3814 266° West 423 487 38,000  Level Fort Worth Center
10:23AM 32.7978 -97.5172 268° West 423 487 38,000  Level Fort Worth Center
10:24AM 32.7892 -97.6531 266° West 423 487 38,000  Level Fort Worth Center
10:25AM 32.7806 -97.7914 266° West 423 487 38,000  Level Fort Worth Center
10:26AM 32.7717 -97.9297 266° West 423 487 38,000  Level Fort Worth Center
10:27AM 32.7628 -98.0631 266° West 423 487 38,000  Level Fort Worth Center
10:28AM 32.7558 -98.1989 267° West 423 487 38,000  Level Fort Worth Center
10:29AM 32.7464 -98.3347 265° West 423 487 38,000  Level Fort Worth Center
10:30AM 32.7394 -98.4433 266° West 423 487 38,000  Level Fort Worth Center
10:31AM 32.7233 -98.5864 262° West 416 479 38,000  Level Fort Worth Center
10:32AM 32.7158 -98.7219 266° West 416 479 38,000  Level Fort Worth Center
10:33AM 32.7081 -98.8603 266° West 422 486 38,000  Level Fort Worth Center
10:34AM 32.6981 -98.9933 265° West 422 486 38,000  Level Fort Worth Center
10:35AM 32.6900 -99.1289 266° West 422 486 38,000  Level Fort Worth Center
10:36AM 32.6778 -99.2644 264° West 422 486 38,000  Level Fort Worth Center
10:37AM 32.6631 -99.4000 263° West 422 486 38,000  Level Fort Worth Center
10:38AM 32.6214 -99.5222 248° West 417 480 38,000  Level Fort Worth Center
10:39AM 32.5817 -99.6494 250° West 412 474 38,000  Level Fort Worth Center
10:40AM 32.5372 -99.7889 249° West 412 474 38,000  Level Fort Worth Center
10:41AM 32.5222 -99.9242 263° West 412 474 38,000  Level Fort Worth Center
10:42AM 32.5153 -100.0594 267° West 417 480 38,000  Level Fort Worth Center
10:43AM 32.5081 -100.1969 266° West 417 480 38,000  Level Fort Worth Center
10:44AM 32.4989 -100.3297 265° West 412 474 38,000  Level Fort Worth Center
10:45AM 32.4894 -100.4625 265° West 412 474 38,000  Level Fort Worth Center
10:46AM 32.4819 -100.5978 266° West 412 474 38,000  Level Fort Worth Center
10:47AM 32.4722 -100.7328 265° West 412 474 38,000  Level Fort Worth Center
10:48AM 32.4622 -100.8653 265° West 412 474 38,000  Level Fort Worth Center
10:49AM 32.4522 -100.9978 265° West 412 474 38,000  Level Fort Worth Center
10:50AM 32.4442 -101.1353 266° West 407 468 38,000  Level Fort Worth Center
10:51AM 32.4339 -101.2678 265° West 407 468 38,000  Level Fort Worth Center
10:52AM 32.4217 -101.3903 263° West 412 474 38,000  Level Fort Worth Center
10:53AM 32.4111 -101.5253 265° West 417 480 38,000  Level Fort Worth Center
10:54AM 32.4022 -101.6625 266° West 423 487 38,000  Level Fort Worth Center
10:55AM 32.3914 -101.7997 265° West 423 487 38,000  Level Fort Worth Center
10:56AM 32.3803 -101.9369 265° West 423 487 38,000  Level Fort Worth Center
10:57AM 32.3669 -102.0742 263° West 423 487 38,000  Level Fort Worth Center
10:58AM 32.3553 -102.2136 264° West 423 487 38,000  Level Fort Worth Center
10:59AM 32.3436 -102.3508 264° West 423 487 38,000  Level Fort Worth Center
11:00AM 32.3292 -102.5047 264° West 423 487 38,000  Level Fort Worth Center
11:01AM 32.3194 -102.6394 265° West 423 487 38,000  Level Fort Worth Center
11:02AM 32.3075 -102.7764 264° West 423 487 38,000  Level Fort Worth Center
11:03AM 32.2975 -102.9108 265° West 423 487 38,000  Level Fort Worth Center
11:04AM 32.2856 -103.0392 264° West 417 480 38,000  Level Albuquerque Center
11:05AM 32.2711 -103.2028 264° West 417 480 38,000  Level Albuquerque Center
11:06AM 32.2581 -103.3397 264° West 418 481 38,000  Level Albuquerque Center
11:07AM 32.2439 -103.4772 263° West 421 484 38,000  Level Albuquerque Center
11:09AM 32.2306 -103.6167 264° West 425 489 38,000  Level Albuquerque Center
11:10AM 32.2183 -103.7561 264° West 427 491 38,000  Level Albuquerque Center
11:11AM 32.2083 -103.8967 265° West 431 496 38,000 -60 Level Albuquerque Center
11:12AM 32.1906 -104.0619 263° West 431 496 37,900  Descending Albuquerque Center
11:13AM 32.1767 -104.2006 263° West 429 494 38,000  Climbing Albuquerque Center
11:14AM 32.1625 -104.3406 263° West 430 495 37,900  Descending Albuquerque Center
11:15AM 32.1475 -104.4806 263° West 431 496 38,000  Climbing Albuquerque Center
11:16AM 32.1347 -104.6217 264° West 433 498 37,900 -60 Descending Albuquerque Center
11:17AM 32.1150 -104.7897 262° West 434 499 37,900  Level Albuquerque Center
11:18AM 32.1008 -104.9306 263° West 434 499 38,000  Climbing Albuquerque Center
11:19AM 32.0864 -105.0706 263° West 433 498 37,900  Descending Albuquerque Center
11:20AM 32.0714 -105.2108 263° West 433 498 38,000  Climbing Albuquerque Center
11:21AM 32.0561 -105.3492 263° West 432 497 37,900 -60 Descending Albuquerque Center
11:22AM 32.0383 -105.5158 263° West 430 495 37,900  Level Albuquerque Center
11:23AM 32.0222 -105.6531 262° West 426 490 38,000  Climbing Albuquerque Center
11:24AM 32.0064 -105.7889 262° West 422 486 37,900  Descending Albuquerque Center
11:25AM 31.9911 -105.9267 263° West 426 490 38,000  Climbing Albuquerque Center
11:26AM 31.9758 -106.0703 263° West 426 490 38,000 -60 Level Albuquerque Center
11:27AM 31.9603 -106.2078 262° West 425 489 37,900  Descending Albuquerque Center
11:28AM 31.9736 -106.3442 277° West 424 488 38,000  Climbing Albuquerque Center
11:29AM 32.0172 -106.4989 288° West 415 478 37,900 -60 Descending Albuquerque Center
11:30AM 32.0544 -106.6281 289° West 417 480 37,900  Level Albuquerque Center
11:31AM 32.0906 -106.7567 288° West 414 476 38,000  Climbing Albuquerque Center
11:32AM 32.1275 -106.8858 289° West 414 476 37,900 -60 Descending Albuquerque Center
11:33AM 32.1636 -107.0158 288° West 415 478 37,900  Level Albuquerque Center
11:34AM 32.2067 -107.1661 289° West 412 474 38,000  Climbing Albuquerque Center
11:35AM 32.2383 -107.2894 287° West 414 476 38,000  Level Albuquerque Center
11:36AM 32.2717 -107.4192 287° West 415 478 38,000 -60 Level Albuquerque Center
11:37AM 32.3136 -107.5650 289° West 416 479 37,900 -60 Descending Albuquerque Center
11:39AM 32.3497 -107.6972 288° West 419 482 37,900  Level Albuquerque Center
11:40AM 32.3853 -107.8278 288° West 418 481 37,900  Level Albuquerque Center
11:41AM 32.4214 -107.9583 288° West 417 480 37,900  Level Albuquerque Center
11:42AM 32.4569 -108.0928 287° West 418 481 38,000  Climbing Albuquerque Center
11:43AM 32.4914 -108.2217 288° West 415 478 38,000  Level Albuquerque Center
11:44AM 32.5275 -108.3531 288° West 418 481 38,000  Level Albuquerque Center
11:45AM 32.5692 -108.5100 288° West 420 483 38,000  Level Albuquerque Center
11:46AM 32.6033 -108.6417 287° West 420 483 38,000  Level Albuquerque Center
11:47AM 32.6386 -108.7731 288° West 420 483 38,000 -60 Level Albuquerque Center
11:48AM 32.6733 -108.9067 287° West 421 484 37,900 -60 Descending Albuquerque Center
11:49AM 32.7094 -109.0394 288° West 422 486 37,900  Level Albuquerque Center
11:50AM 32.7431 -109.1758 286° West 425 489 38,000  Climbing Albuquerque Center
11:51AM 32.7783 -109.3103 287° West 427 491 38,000  Level Albuquerque Center
11:52AM 32.8206 -109.4703 287° West 425 489 38,000  Level Albuquerque Center
11:53AM 32.8550 -109.6042 287° West 426 490 38,000  Level Albuquerque Center
11:54AM 32.8889 -109.7392 287° West 427 491 38,000  Level Albuquerque Center
11:55AM 32.9236 -109.8722 287° West 426 490 38,000  Level Albuquerque Center
11:56AM 32.9553 -110.0047 286° West 423 487 38,000  Level Albuquerque Center
11:57AM 32.9975 -110.1664 287° West 428 493 38,000  Level Albuquerque Center
11:58AM 33.0314 -110.3000 287° West 425 489 38,000  Level Albuquerque Center
11:59AM 33.0642 -110.4344 286° West 425 489 38,000  Level Albuquerque Center
12:00PM 33.0972 -110.5667 287° West 422 486 38,000  Level Albuquerque Center
12:01PM 33.1311 -110.7000 287° West 422 486 38,000  Level Albuquerque Center
12:02PM 33.1631 -110.8344 286° West 422 486 38,000  Level Albuquerque Center
12:03PM 33.2017 -110.9967 286° West 422 486 38,000  Level Albuquerque Center
12:04PM 33.2358 -111.1294 287° West 422 486 38,000  Level Albuquerque Center
12:05PM 33.2675 -111.2650 286° West 424 488 38,000  Level Albuquerque Center
12:06PM 33.3000 -111.4006 286° West 424 488 38,000  Level Albuquerque Center
12:07PM 33.3325 -111.5347 286° West 420 483 38,000  Level Albuquerque Center
12:08PM 33.3633 -111.6706 285° West 421 484 38,000  Level Albuquerque Center
12:09PM 33.3956 -111.8064 286° West 423 487 38,000  Level Albuquerque Center
12:10PM 33.4275 -111.9414 286° West 421 484 38,000  Level Albuquerque Center
12:12PM 33.4667 -112.1011 286° West 417 480 38,000  Level Albuquerque Center
12:13PM 33.5025 -112.2353 288° West 419 482 38,000  Level Albuquerque Center
12:14PM 33.5361 -112.3706 287° West 421 484 38,000  Level Albuquerque Center
12:15PM 33.5706 -112.5039 287° West 418 481 38,000  Level Albuquerque Center
12:16PM 33.6086 -112.6525 287° West 419 482 38,000 -60 Level Albuquerque Center
12:17PM 33.6436 -112.7850 288° West 419 482 37,900  Descending Albuquerque Center
12:18PM 33.6725 -112.9050 286° West 418 481 38,000  Climbing Albuquerque Center
12:19PM 33.7119 -113.0656 286° West 419 482 38,000  Level Albuquerque Center
12:20PM 33.7456 -113.1997 287° West 419 482 38,000  Level Albuquerque Center
12:21PM 33.7786 -113.3325 287° West 420 483 38,000  Level Albuquerque Center
12:22PM 33.8111 -113.4656 286° West 419 482 38,000  Level Albuquerque Center
12:23PM 33.8447 -113.6008 287° West 421 484 38,000  Level Albuquerque Center
12:24PM 33.8767 -113.7369 286° West 422 486 38,000  Level Albuquerque Center
12:25PM 33.9167 -113.8989 287° West 421 484 38,000  Level Albuquerque Center
12:26PM 33.9486 -114.0344 286° West 422 486 38,000 -60 Level Albuquerque Center
12:27PM 33.9753 -114.1425 287° West 420 483 37,900  Descending Los Angeles Center
12:28PM 34.0083 -114.2789 286° West 423 487 38,000  Climbing Los Angeles Center
12:29PM 34.0314 -114.4172 281° West 426 490 37,900 -60 Descending Los Angeles Center
12:30PM 34.0436 -114.5881 275° West 427 491 37,900  Level Los Angeles Center
12:31PM 34.0528 -114.7294 275° West 426 490 37,900  Level Los Angeles Center
12:32PM 34.0608 -114.8706 274° West 423 487 37,900  Level Los Angeles Center
12:33PM 34.0692 -115.0097 274° West 418 481 37,900  Level Los Angeles Center
12:34PM 34.0767 -115.1475 274° West 415 478 37,900  Level Los Angeles Center
12:35PM 34.0861 -115.3150 274° West 417 480 38,000  Climbing Los Angeles Center
12:36PM 34.0964 -115.4844 274° West 421 484 37,900 -120 Descending Los Angeles Center
12:37PM 34.1064 -115.6269 275° West 426 490 37,800 -480 Descending Los Angeles Center
12:38PM 34.1119 -115.7636 273° West 413 475 36,900 -1,260 Descending Los Angeles Center
12:39PM 34.0958 -115.8944 262° West 397 457 35,200 -1,740 Descending Los Angeles Center
12:40PM 34.0753 -116.0178 259° West 381 438 33,400 -2,040 Descending Los Angeles Center
12:41PM 34.0539 -116.1647 260° West 371 427 31,000 -2,160 Descending Los Angeles Center
12:43PM 34.0358 -116.2900 260° West 377 434 29,000 -1,500 Descending Los Angeles Center
12:44PM 34.0153 -116.4194 259° West 390 449 28,000 -1,440 Descending Los Angeles Center
12:45PM 34.0011 -116.5450 262° West 384 442 26,100 -1,860 Descending Los Angeles Center
12:46PM 33.9914 -116.6683 265° West 375 432 24,200 -2,100 Descending Los Angeles Center
12:47PM 33.9792 -116.8133 264° West 368 423 21,800 -2,160 Descending Los Angeles Center
12:48PM 33.9692 -116.9319 264° West 361 415 19,800 -1,920 Descending Los Angeles Center
12:49PM 33.9592 -117.0511 264° West 359 413 17,900 -1,500 Descending Los Angeles Center
12:50PM 33.9489 -117.1731 264° West 350 403 16,700 -1,440 Descending Los Angeles Center
12:51PM 33.9400 -117.2828 264° West 334 384 15,000 -1,560 Descending Los Angeles Center
12:52PM 33.9333 -117.4000 266° West 329 379 13,600 -1,560 Descending Southern California TRACON
12:53PM 33.9833 -117.5000 301° West 317 365 11,800 -1,320 Descending Southern California TRACON
12:54PM 34.0167 -117.6000 292° West 326 375 10,900 -960 Descending Southern California TRACON
12:55PM 34.0167 -117.6833 270° West 282 325 10,000 -1,200 Descending Southern California TRACON
12:56PM 34.0000 -117.7833 259° West 275 316 8,700 -1,380 Descending Southern California TRACON
12:57PM 33.9833 -117.8833 259° West 280 322 7,300 -1,320 Descending Southern California TRACON
12:58PM 33.9833 -117.9667 270° West 275 316 6,100 -1,020 Descending Southern California TRACON
12:59PM 33.9667 -118.0500 256° West 247 284 5,300 -960 Descending Southern California TRACON
01:00PM 33.9667 -118.1333 270° West 228 262 4,200 -1,140 Descending Southern California TRACON